Regional Weather Roundup
Issued by NWS

Home | Current Version | Previous Version | Graphics & Text | Print | Product List | Glossary On
Versions: 1 2 3 4 5 6 7 8 9 10 11 12 13 14 15 16 17 18 19 20 21 22 23 24 25 26 27 28 29 30 31 32 33 34 35 36 37 38 39 40 41 42 43 44 45 46 47 48 49 50
000
ASUS43 KLOT 291803
RWRIL

ILLINOIS REGIONAL WEATHER ROUNDUP
NATIONAL WEATHER SERVICE CHICAGO/ROMEOVILLE IL
100 PM CDT SUN MAY 29 2016

NOTE: "FAIR" INDICATES FEW OR NO CLOUDS BELOW 12,000 FEET WITH NO
SIGNIFICANT WEATHER AND/OR OBSTRUCTIONS TO VISIBILITY.

* THESE STATIONS ARE NOT UNDER NWS QUALITY CONTROL. THEY ALSO MAY NOT
  REPORT WEATHER SUCH AS PRECIPITATION OR FOG.

ILZ001-002-007-009-015-016-024-291900-
NORTHWEST ILLINOIS

CITY           SKY/WX    TMP DP  RH WIND       PRES   REMARKS
MOLINE         MOSUNNY   79  60  52 W12G18    30.04F HX  80
6HR MIN TEMP:  67; 6HR MAX TEMP:  79;

STERLING*      MOSUNNY   77  61  57 W15G22    30.04S
$$

ILZ003-004-008-010-011-017-018-291900-
NORTH CENTRAL ILLINOIS

CITY           SKY/WX    TMP DP  RH WIND       PRES   REMARKS
ROCKFORD       PTSUNNY   77  59  53 W17       30.03S
6HR MIN TEMP:  67; 6HR MAX TEMP:  77;

FREEPORT*      PTSUNNY   75  60  60 W14       30.03S
$$

ILZ005-006-012>014-019>023-291900-
NORTHEAST ILLINOIS

CITY           SKY/WX    TMP DP  RH WIND       PRES   REMARKS
CHICAGO-OHARE  MOSUNNY   75  61  61 W13       30.01S
6HR MIN TEMP:  66; 6HR MAX TEMP:  76;

CHICAGO-MIDWAY MOSUNNY   79  59  50 SW20      30.01S HX  80
6HR MIN TEMP:  68; 6HR MAX TEMP:  80;

AURORA         PTSUNNY   75  62  64 W14G23    30.04S
6HR MIN TEMP:  67; 6HR MAX TEMP:  76;

LANSING*       MOSUNNY   80  58  46 SW18      30.02R HX  80
WAUKEGAN       MOSUNNY   74  61  63 W8        29.99S
6HR MIN TEMP:  66; 6HR MAX TEMP:  74; 6HR PCP: TRACE;

DUPAGE AIRPORT PTSUNNY   74  61  63 SW13      30.03S
6HR MIN TEMP:  66; 6HR MAX TEMP:  75;

WHEELING       PTSUNNY   75  59  57 W14G22    30.02S
6HR MIN TEMP:  66; 6HR MAX TEMP:  76;

NORTHERLY ISL    N/A     76  55  48 W15         N/A
NORTHERLY ISL    N/A     76  55  48 W15         N/A
$$

LMZ740>746-291900-
SOUTHERN LAKE MICHIGAN

STATION/POSITION SKY/WX   TEMP    WIND        PRES    VSBY  WAVE
                          AIR SEA DIR/SP/G                  HT/PER
                          (F)     (DEG/KT/KT) (MB)    (MI)  (FT/S)
SOUTHERN BUOY              55 50  190/ 10/ 12 1015.2          1/ 3
WILMETTE HARBOR            65 54  270/ 10/ 16   N/A           2/ 2
HARRISON CRIB              74     270/ 21/ 24   N/A
BURNHAM HARBOR             77     250/ 12/ 18   N/A
CALUMET HARBOR             78     230/ 15/ 20 1015.4F
BURNS HARBOR               76     240/ 20/ 25 1016.3F
MICHIGAN CITY              72     230/ 20/ 21   N/A
MICHIGAN CITY 6N           65 57  260/ 10/ 12   N/A           1/ 2
ST. JOSEPH                 66 63  240/  8/  8   N/A           1
$$

ILZ025>027-034>036-040-047-049-050-058-095>099-291900-
WEST-CENTRAL ILLINOIS

CITY           SKY/WX    TMP DP  RH WIND       PRES   REMARKS
QUINCY         SUNNY     80  59  48 W7G17     30.09F HX  81
MACOMB*        MOSUNNY   78  58  51 NW10      30.10S
PITTSFIELD*    SUNNY     80  62  52 W10G17    30.11S HX  81
$$

ILZ028>032-037-038-041>044-048-051>054-059>061-291900-
CENTRAL ILLINOIS

CITY           SKY/WX    TMP DP  RH WIND       PRES   REMARKS
BLOOMINGTON    MOSUNNY   78  63  60 W10       30.09S HX  80
DECATUR        PTSUNNY   83  58  42 W9        30.08S HX  83
PEORIA         MOSUNNY   79  57  46 NW12      30.07S HX  80
6HR MIN TEMP:  66; 6HR MAX TEMP:  80;

SPRINGFIELD    SUNNY     84  56  38 NW10G26   30.08F HX  83
6HR MIN TEMP:  69; 6HR MAX TEMP:  85;

TAYLORVILLE    NOT AVBL
$$

ILZ033-039-045-046-055>057-062-063-291900-
EAST-CENTRAL ILLINOIS

CITY           SKY/WX    TMP DP  RH WIND       PRES   REMARKS
CHAMPAIGN      MOSUNNY   84  57  39 W14G23    30.08F HX  83
MATTOON        PTSUNNY   81  58  45 VRB7      30.08F HX  81
$$

ILZ079-100>102-291900-
SOUTHWEST ILLINOIS

CITY           SKY/WX    TMP DP  RH WIND       PRES   REMARKS
ALTON          MOSUNNY   81  59  47 NW8       30.11F HX  81
BELLEVILLE     MOSUNNY   84  61  45 VRB6      30.09F HX  84
CAHOKIA*       PTSUNNY   83  57  41 VRB7      30.10F HX  82
SPARTA*        MOSUNNY   81  63  53 NW6       30.11F HX  82
$$

ILZ064>066-069>071-074>076-080>082-084>086-088>090-092>094-291900-
SOUTH-CENTRAL ILLINOIS

CITY           SKY/WX    TMP DP  RH WIND       PRES   REMARKS
CARBONDALE     MOSUNNY   84  63  49 VRB7      30.09F HX  85
6HR MIN TEMP:  68; 6HR MAX TEMP:  84;

MARION         PTSUNNY   82  68  61 W8        30.10  HX  85
MT. VERNON     MOSUNNY   82  64  54 W3        30.10S HX  84
SALEM*         MOSUNNY   83  61  48 W6        30.10F HX  83
$$

ILZ067-068-072-073-078-083-087-091-291900-
SOUTHEAST ILLINOIS

CITY           SKY/WX    TMP DP  RH WIND       PRES   REMARKS
LAWRENCEVILLE  MOSUNNY   85  68  56 VRB6      30.07F HX  88
FLORA*         MOSUNNY   84  66  54 NW8       30.09F HX  87
HARRISBURG*    MOSUNNY   83  72  68 W7        30.09F HX  88
ROBINSON*      PTSUNNY   81  68  64 W9        30.08F HX  84
$$

ABBREVIATIONS USED IN REMARKS
   TC - TEMPERATURE IN CELSIUS
  WCI - WIND CHILL INDEX
   HX - HEAT INDEX
  VSB - VISIBILITY
$$




USA.gov is the U.S. government's official web portal to all federal, state and local government web resources and services.